Weather History for PAKF - August, 2013

Change the Weather History Date:

Saturday, August 24, 2013

  Actual Average (PACD) Record (PACD)
Temperature  
Mean Temperature 56 °F 52 °F  
Max Temperature 54 °F 56 °F 73 °F (1984)
Min Temperature 51 °F 48 °F 38 °F (2012)
Degree Days  
Heating Degree Days 10 13  
Month to date heating degree days 312  
Since 1 June heating degree days 1312  
Since 1 July heating degree days 750  
Cooling Degree Days 0    
Month to date cooling degree days  
Year to date cooling degree days  
Since 1 June cooling degree days  
Growing Degree Days 6 (Base 50)    
Moisture  
Dew Point 53 °F    
Average Humidity 95    
Maximum Humidity 100    
Minimum Humidity 77    
Precipitation  
Precipitation 0.23 in 0.13 in 0.56 in (1972)
Month to date precipitation 2.74  
Year to date precipitation 21.80  
Snow  
Snow 0.00 in 0.00 in 0.00 in (2014)
Month to date snowfall 0.0  
Since 1 June snowfall 0.0  
Since 1 July snowfall 0.0  
Snow Depth -    
Sea Level Pressure  
Sea Level Pressure 30.05 in    
Wind  
Wind Speed 6 mph (NE)    
Max Wind Speed 15 mph    
Max Gust Speed 21 mph    
Visibility 8 miles    
Events Rain    
T = Trace of Precipitation, MM = Missing Value Source: NWS Daily Summary

Daily Weather History Graph

Daily Weather History Graph

Search for Another Location

Airport or City:

Trip Planner

Search our weather history database for the weather conditions in past years. The results will help you decide how hot, cold, wet, or windy it might be!

Date:

Astronomy

Aug. 24, 2013 Rise Set
Actual Time 6:46 AM HDT 9:04 PM HDT
Civil Twilight 6:06 AM HDT 9:43 PM HDT
Nautical Twilight 5:16 AM HDT 10:33 PM HDT
Astronomical Twilight 4:15 AM HDT 11:33 PM HDT
Moon 10:10 PM HDT (8/24) 11:50 AM HDT (8/24)
Length of Visible Light 15h 36m
Length of Day
14h 17m
Waning Gibbous, 83% of the Moon is Illuminated
Aug 24
Waning Gibbous
Aug 28
Last Quarter
Sep 5
New
Sep 12
First Quarter
Sep 19
Full

Hourly Weather History & Observations

Time (HDT) Temp. Dew Point Humidity Pressure Visibility Wind Dir Wind Speed Gust Speed Precip Events Conditions
12:01 AM 57.9 °F 55.0 °F 90% 30.23 in 10.0 mi Variable 3.5 mph - N/A   Overcast
12:13 AM 60.8 °F 53.6 °F 77% 29.95 in 10.0 mi North - - N/A   Scattered Clouds
1:01 AM 57.0 °F 53.1 °F 87% 30.22 in 10.0 mi NE 5.8 mph - N/A   Partly Cloudy
1:23 AM 55.4 °F 53.6 °F 94% 29.95 in 10.0 mi NE 8.1 mph - N/A   Mostly Cloudy
2:01 AM 55.9 °F 52.0 °F 87% 30.23 in 10.0 mi NNE 9.2 mph - N/A   Overcast
3:01 AM 55.0 °F 52.0 °F 89% 30.24 in 10.0 mi Variable 3.5 mph - N/A   Overcast
4:01 AM 55.0 °F 52.0 °F 89% 30.23 in 10.0 mi NE 6.9 mph - N/A   Overcast
5:01 AM 52.0 °F 51.1 °F 97% 30.24 in 10.0 mi North 5.8 mph - N/A   Overcast
6:01 AM 53.1 °F 51.1 °F 93% 30.25 in 10.0 mi NNW 5.8 mph - N/A   Overcast
6:24 AM 51.8 °F 50.0 °F 94% 29.97 in 10.0 mi Variable 4.6 mph - N/A   Overcast
7:01 AM 52.0 °F 50.0 °F 93% 30.25 in 10.0 mi Variable 3.5 mph - N/A   Overcast
7:51 AM 51.8 °F 50.0 °F 94% 29.97 in 10.0 mi North 15.0 mph 20.7 mph N/A   Overcast
8:01 AM 51.1 °F 50.0 °F 96% 30.25 in 10.0 mi North 11.5 mph - N/A   Overcast
8:27 AM 51.8 °F 50.0 °F 94% 29.98 in 7.0 mi NNE 12.7 mph 16.1 mph N/A   Overcast
9:01 AM 51.1 °F 50.0 °F 96% 30.25 in 10.0 mi North 11.5 mph - N/A   Overcast
10:01 AM 51.1 °F 50.0 °F 96% 30.25 in 10.0 mi NNW 8.1 mph - N/A   Overcast
10:08 AM 51.8 °F 50.0 °F 94% 29.97 in 9.0 mi NNW 6.9 mph - N/A   Overcast
10:31 AM 51.8 °F 50.0 °F 94% 29.97 in 2.5 mi NNW 5.8 mph - N/A   Overcast
10:40 AM 51.8 °F 51.8 °F 100% 29.97 in 3.0 mi NNW 4.6 mph - N/A   Overcast
10:59 AM 51.8 °F 51.8 °F 100% 29.97 in 2.0 mi North 4.6 mph - N/A   Overcast
11:01 AM 52.0 °F 51.1 °F 97% 30.26 in 2.5 mi North 6.9 mph - N/A   Overcast
11:10 AM 51.8 °F 51.8 °F 100% 29.98 in 5.0 mi NNW 6.9 mph - N/A   Overcast
11:22 AM 51.8 °F 51.8 °F 100% 29.98 in 8.0 mi North 5.8 mph - N/A   Overcast
12:01 PM 53.1 °F 51.1 °F 93% 30.26 in 10.0 mi NNW 5.8 mph - 0.00 in Rain Light Rain
12:32 PM 53.6 °F 51.8 °F 94% 29.97 in 10.0 mi Calm Calm - 0.00 in   Overcast
1:01 PM 55.4 °F 51.8 °F 88% 29.97 in 10.0 mi Calm Calm - 0.00 in   Overcast
1:07 PM 55.0 °F 52.0 °F 89% 30.25 in 10.0 mi Calm Calm - 0.00 in   Overcast
1:35 PM 53.6 °F 51.8 °F 94% 29.96 in 10.0 mi Variable 3.5 mph - N/A   Overcast
2:01 PM 55.0 °F 52.0 °F 89% 30.23 in 10.0 mi Calm Calm - 0.00 in Rain Light Rain
2:09 PM 55.4 °F 51.8 °F 88% 29.95 in 10.0 mi North 3.5 mph - 0.00 in Rain Light Rain
2:28 PM 55.4 °F 53.6 °F 94% 29.94 in 10.0 mi Calm Calm - 0.00 in   Overcast
2:32 PM 55.4 °F 53.6 °F 94% 29.94 in 10.0 mi North - - 0.00 in   Overcast
2:46 PM 55.4 °F 53.6 °F 94% 29.94 in 10.0 mi North - - 0.00 in   Overcast
3:01 PM 55.9 °F 53.1 °F 90% 30.22 in 10.0 mi NNW 3.5 mph - 0.00 in   Overcast
3:31 PM 57.2 °F 53.6 °F 88% 29.94 in 10.0 mi North - - N/A   Overcast
4:01 PM 57.0 °F 54.0 °F 89% 30.21 in 10.0 mi East 9.2 mph - N/A   Overcast
4:27 PM 55.4 °F 53.6 °F 94% 29.93 in 10.0 mi East 12.7 mph - N/A   Overcast
4:40 PM 55.4 °F 53.6 °F 94% 29.93 in 10.0 mi East 10.4 mph - N/A   Overcast
5:01 PM 55.0 °F 53.1 °F 93% 30.21 in 10.0 mi East 11.5 mph - N/A   Overcast
5:24 PM 55.4 °F 53.6 °F 94% 29.93 in 10.0 mi East 9.2 mph - N/A   Overcast
6:01 PM 54.0 °F 53.1 °F 97% 30.20 in 8.0 mi East 11.5 mph - 0.01 in Rain Rain
6:59 PM 55.4 °F 53.6 °F 94% 29.91 in 9.0 mi North - - 0.02 in   Overcast
7:01 PM 55.0 °F 54.0 °F 96% 30.19 in 8.0 mi North - - 0.02 in   Overcast
7:50 PM 55.4 °F 55.4 °F 100% 29.91 in 1.8 mi Calm Calm - 0.04 in Rain Heavy Rain
8:01 PM 55.0 °F 54.0 °F 96% 30.19 in 1.8 mi Calm Calm - 0.14 in Rain Rain
8:08 PM 55.4 °F 53.6 °F 94% 29.91 in 2.5 mi North - - 0.01 in Rain Light Rain
8:16 PM 53.6 °F 53.6 °F 100% 29.91 in 2.0 mi North - - 0.01 in Rain Light Rain
8:20 PM 53.6 °F 53.6 °F 100% 29.91 in 1.8 mi East 5.8 mph - 0.01 in Rain Light Rain
8:46 PM 53.6 °F 53.6 °F 100% 29.90 in 1.8 mi North - - 0.05 in Rain Light Rain
8:53 PM 53.6 °F 53.6 °F 100% 29.91 in 2.5 mi Calm Calm - 0.05 in Rain Light Rain
8:58 PM 53.6 °F 53.6 °F 100% 29.91 in 1.8 mi Calm Calm - 0.06 in Rain Light Rain
9:01 PM 55.4 °F 53.6 °F 94% 29.90 in 1.5 mi East 4.6 mph - 0.06 in Rain Light Rain
9:07 PM 55.0 °F 54.0 °F 96% 30.18 in 1.5 mi East 4.6 mph - 0.06 in Rain Light Rain
9:14 PM 53.6 °F 53.6 °F 100% 29.90 in 3.0 mi East 4.6 mph - 0.00 in Rain Light Rain
9:21 PM 53.6 °F 53.6 °F 100% 29.90 in 5.0 mi North - - 0.00 in Rain Light Rain
9:49 PM 53.6 °F 53.6 °F 100% 29.90 in 10.0 mi East 4.6 mph - 0.00 in   Overcast
10:01 PM 54.0 °F 53.1 °F 97% 30.19 in 10.0 mi East 10.4 mph - 0.00 in   Overcast
10:09 PM 53.6 °F 53.6 °F 100% 29.91 in 9.0 mi East 5.8 mph - N/A   Overcast
10:13 PM 53.6 °F 53.6 °F 100% 29.91 in 7.0 mi East 4.6 mph - 0.00 in Rain Light Rain
10:37 PM 53.6 °F 53.6 °F 100% 29.91 in 9.0 mi East 8.1 mph - 0.00 in   Overcast
11:01 PM 54.0 °F 53.1 °F 97% 30.18 in 9.0 mi East 12.7 mph - 0.00 in   Overcast